This is the latest recevied weather packets stored in our database for station/object KN6DHD. If no packets are shown the sender has not sent any weather packets the latest 10 day(s).
| Time | Temp. | Humidity | Pressure | Rain* | Wind** | Luminosity | Snow |
|---|---|---|---|---|---|---|---|
| 1777567327 | 16.67° C | 76% | 1015.1 hPa | 0 mm | - | 44 W/m² | - |
| 1777567025 | 16.67° C | 76% | 1015 hPa | 0 mm | - | 44 W/m² | - |
| 1777566723 | 16.11° C | 76% | 1015.1 hPa | 0 mm | - | 44 W/m² | - |
| 1777566420 | 16.11° C | 77% | 1015.2 hPa | 0 mm | - | 43 W/m² | - |
| 1777566118 | 16.11° C | 77% | 1015 hPa | 0 mm | - | 44 W/m² | - |
| 1777565812 | 15.56° C | 77% | 1015 hPa | 0 mm | - | 44 W/m² | - |
| 1777565509 | 15.56° C | 77% | 1015.1 hPa | 0 mm | - | 43 W/m² | - |
| 1777565205 | 15.56° C | 79% | 1015.1 hPa | 0 mm | - | 168 W/m² | - |
| 1777564902 | 15° C | 78% | 1015.1 hPa | 0 mm | - | 63 W/m² | - |
| 1777564597 | 15° C | 79% | 1015.1 hPa | 0 mm | - | 42 W/m² | - |
| 1777564293 | 15° C | 79% | 1015.2 hPa | 0 mm | - | 41 W/m² | - |
| 1777563989 | 15° C | 78% | 1015.2 hPa | 0 mm | - | 42 W/m² | - |
| 1777563686 | 15° C | 79% | 1015.2 hPa | 0 mm | - | 83 W/m² | - |
| 1777563381 | 15° C | 79% | 1015.3 hPa | 0 mm | - | 49 W/m² | - |
| 1777563077 | 13.89° C | 82% | 1015 hPa | 0 mm | - | 198 W/m² | - |
| 1777562772 | 13.89° C | 84% | 1015 hPa | 0 mm | - | 161 W/m² | - |
| 1777562471 | 13.89° C | 84% | 1015.4 hPa | 0 mm | - | 175 W/m² | - |
| 1777562167 | 13.33° C | 84% | 1015.2 hPa | 0 mm | - | 128 W/m² | - |
| 1777561865 | 13.33° C | 85% | 1015.1 hPa | 0 mm | - | 36 W/m² | - |
| 1777561562 | 13.33° C | 85% | 1015.3 hPa | 0 mm | - | 33 W/m² | - |
| 1777561257 | 13.33° C | 86% | 1015.1 hPa | 0 mm | - | 33 W/m² | - |
| 1777560956 | 12.78° C | 87% | 1015.2 hPa | 0 mm | - | 32 W/m² | - |
| 1777560653 | 12.78° C | 87% | 1015.2 hPa | 0 mm | - | 31 W/m² | - |
| 1777560351 | 12.78° C | 88% | 1015.1 hPa | 0 mm | - | 30 W/m² | - |
| 1777560049 | 12.22° C | 88% | 1015.2 hPa | 0 mm | - | 29 W/m² | - |
* Rain latest hour (hover to see other rain measurements)
** Current wind speed in m/s (hover to see current wind gust speed)